カタログに戻る

KUIPER-00098

運用中通信LEO
NORAD 65137·PAYLOAD·🇺🇸 United States

打ち上げ Aug 11, 2025 から Cape Canaveral Space Force Station

Loading…

次のパス (今後24時間)

TLE

最新Source: CelesTrak SupGP

元期: Sep 14, 2026, 17:03 UTC

1 65137C 25171F   26257.71105324  .00004581  00000+0  59970-3 0  2570
2 65137  51.9008  47.2418 0000779 102.0900  20.7760 14.79924180    16

AllMySatでKUIPER-00098をリアルタイム追跡

Download on the App Store